Regional Weather Roundup
Issued by NWS Burlington, VT

Home | Current Version | Previous Version | Text Only | Print | Product List | Glossary On
Versions: 1 2 3 4 5 6 7 8 9 10 11 12 13 14 15 16 17 18 19 20 21 22 23 24 25 26 27 28 29 30 31 32 33 34 35 36 37 38 39 40 41 42 43 44 45 46 47 48 49 50
000
ASUS41 KBTV 051730
RWRBTV
VERMONT REGIONAL WEATHER ROUNDUP
NATIONAL WEATHER SERVICE BURLINGTON VT
100 PM EDT SUN JUL 05 2015

NOTE: "FAIR" INDICATES FEW OR NO CLOUDS BELOW 12,000 FEET WITH NO
SIGNIFICANT WEATHER AND/OR OBSTRUCTIONS TO VISIBILITY.

* THESE REPORTS ARE NOT UNDER NWS QUALITY CONTROL AND/OR DO NOT
  REPORT WEATHER SUCH AS PRECIPITATION AND FOG.

VTZ001>019-051800-
_____VERMONT_____


CITY           SKY/WX    TMP DP  RH WIND       PRES   REMARKS
BURLINGTON     MOSUNNY   78  59  51 NW7       30.08S
MONTPELIER     PTSUNNY   73  59  61 N9        30.14R
MORRISVILLE    PTSUNNY   77  56  48 NW9       30.11R
ST. JOHNSBURY*   N/A     78  57  48 MISG      30.06S
LYNDONVILLE*   PTSUNNY   74  58  58 SW10G16   30.11S
MIDDLEBURY*    FAIR      77  61  56 SW3       30.09F
RUTLAND*       PTSUNNY   73  57  56 NW7       30.11S
SPRINGFIELD    SUNNY     80  56  43 W10       30.08S
HIGHGATE*      FAIR      76  62  62 W5        30.07S
NEWPORT*       FAIR      74  58  58 W8G16     30.09S
BENNINGTON     MOSUNNY   76  61  59 N5        30.12F
SUTTON*          N/A     72 N/A N/A MISG        N/A
MT. MANSFIELD*   N/A     57 N/A N/A NW12        N/A

_____LAKE CHAMPLAIN_____


CITY           SKY/WX    TMP DP  RH WIND       PRES   REMARKS
BURTON ISLAND*   N/A     70  63  78 S7          N/A
COLCHESTER RF*   N/A     68  64  88 SW12        N/A
DIAMOND ISL*     N/A     70  64  83 SW3         N/A

$$

NYZ007-026>031-035-052-083-051800-
_____NORTHERN NEW YORK_____


CITY           SKY/WX    TMP DP  RH WIND       PRES   REMARKS
PLATTSBURGH    MOSUNNY   73  64  73 SE10      30.07S
SARANAC LAKE   MOSUNNY   72  55  55 VRB7      30.12R
MASSENA        MOSUNNY   77  60  55 NW9       30.09S
OGDENSBURG*    MOSUNNY   81  63  54 W7        30.10R
POTSDAM*       SUNNY     77  64  65 W7        30.10S
WATERTOWN      SUNNY     73  63  70 W9        30.13R
FT DRUM        MOSUNNY   75  60  58 W10       30.12R
ALBANY         MOSUNNY   78  61  55 CALM      30.11S
GLENS FALLS    SUNNY     76  64  66 S8        30.09F

$$
NHZ002-005-011-051800-
_____NEW HAMPSHIRE_____


CITY           SKY/WX    TMP DP  RH WIND       PRES   REMARKS
LEBANON        MOSUNNY   80  59  48 NW8       30.06F
KEENE          MOSUNNY   79  59  50 N3        30.08F
MT WASHINGTON  FOG       48  48 100 NW35        N/A  VSB 0
PLYMOUTH       FAIR      78  64  61 W8        30.05F
WHITEFIELD     MOSUNNY   78  59  51 W9        30.08S

$$

_____REGIONAL QUEBEC LOCATIONS_____


CITY           SKY/WX    TMP DP  RH WIND       PRES   REMARKS
MONTREAL       PTSUNNY   77  61  57 W13G18    30.05S
QUEBEC CITY    PTSUNNY   73  57  56 NW9       30.01R
SHERBROOKE     PTSUNNY   75  59  57 W10G17    30.05S

_____REGIONAL ONTARIO LOCATIONS_____


CITY           SKY/WX    TMP DP  RH WIND       PRES   REMARKS
OTTAWA         MOSUNNY   77  59  53 NW15      30.10R

______KEY______
VSB  - VISIBILITY IN MILES
WCI  - WIND CHILL INDEX
HX   - HEAT INDEX
$$
NNNN



USA.gov is the U.S. government's official web portal to all federal, state and local government web resources and services.